Time,TemperatureF,DewpointF,PressureIn,WindDirection,WindDirectionDegrees,WindSpeedMPH,WindSpeedGustMPH,Humidity,HourlyPrecipIn,Conditions,Clouds,dailyrainin,SolarRadiationWatts/m^2,SoftwareType,DateUTC
2017-02-27 00:02:00,27.1,13.1,30.18,South,186,2.5,2.5,55,0.00,,,0.00,0.00,Weather logger V3.0.,2017-02-27 05:02:00,
2017-02-27 00:07:00,27.5,13.5,30.19,South,171,0.4,2.5,55,0.00,,,0.00,0.00,Weather logger V3.0.,2017-02-27 05:07:00,
2017-02-27 00:13:00,27.9,13.8,30.19,SSW,198,1.3,2.5,55,0.00,,,0.00,0.00,Weather logger V3.0.,2017-02-27 05:13:00,
2017-02-27 00:18:00,28.0,12.2,30.19,South,185,0.0,0.0,51,0.00,,,0.00,0.00,Weather logger V3.0.,2017-02-27 05:18:00,
2017-02-27 00:23:00,28.2,14.2,30.19,South,186,0.4,2.5,55,0.00,,,0.00,0.00,Weather logger V3.0.,2017-02-27 05:23:00,
2017-02-27 00:35:00,28.2,12.4,-100.00,South,181,0.4,2.5,51,0.00,,,0.00,0.00,Weather logger V3.0.,2017-02-27 05:35:00,
2017-02-27 00:41:00,28.2,14.2,30.20,South,176,0.2,2.5,55,0.00,,,0.00,0.00,Weather logger V3.0.,2017-02-27 05:41:00,
2017-02-27 00:46:00,28.2,13.6,30.21,SSW,197,1.3,2.5,54,0.00,,,0.00,0.00,Weather logger V3.0.,2017-02-27 05:46:00,
2017-02-27 00:51:00,28.0,13.5,30.20,SSW,192,0.9,2.5,54,0.00,,,0.00,0.00,Weather logger V3.0.,2017-02-27 05:51:00,
2017-02-27 00:56:00,27.9,13.3,30.21,SW,229,0.9,2.5,54,0.00,,,0.00,0.00,Weather logger V3.0.,2017-02-27 05:56:00,
2017-02-27 01:01:00,27.9,13.3,30.21,SW,223,0.0,0.0,54,0.00,,,0.00,0.00,Weather logger V3.0.,2017-02-27 06:01:00,
2017-02-27 01:06:00,27.7,13.3,30.22,South,170,2.0,2.5,54,0.00,,,0.00,0.00,Weather logger V3.0.,2017-02-27 06:06:00,
2017-02-27 01:11:00,27.5,13.1,30.22,SSE,166,1.3,2.5,54,0.00,,,0.00,0.00,Weather logger V3.0.,2017-02-27 06:11:00,
2017-02-27 01:17:00,27.7,12.7,30.22,SSW,196,1.3,2.5,53,0.00,,,0.00,0.00,Weather logger V3.0.,2017-02-27 06:17:00,
2017-02-27 01:22:00,27.7,12.7,30.22,South,178,0.0,0.0,53,0.00,,,0.00,0.00,Weather logger V3.0.,2017-02-27 06:22:00,
2017-02-27 01:27:00,27.7,13.3,30.22,SE,137,1.8,2.5,54,0.00,,,0.00,0.00,Weather logger V3.0.,2017-02-27 06:27:00,
2017-02-27 01:32:00,27.7,14.0,30.21,South,172,0.9,2.5,56,0.00,,,0.00,0.00,Weather logger V3.0.,2017-02-27 06:32:00,
2017-02-27 01:37:00,27.5,14.7,30.22,South,182,1.1,2.5,58,0.00,,,0.00,0.00,Weather logger V3.0.,2017-02-27 06:37:00,
2017-02-27 01:42:00,27.3,14.5,30.22,SE,145,0.0,0.0,58,0.00,,,0.00,0.00,Weather logger V3.0.,2017-02-27 06:42:00,
2017-02-27 01:47:00,27.1,14.4,30.22,SSE,155,2.0,2.5,58,0.00,,,0.00,0.00,Weather logger V3.0.,2017-02-27 06:47:00,
2017-02-27 01:52:00,27.1,13.5,30.22,SSE,161,2.5,2.5,56,0.00,,,0.00,0.00,Weather logger V3.0.,2017-02-27 06:52:00,
2017-02-27 01:57:00,27.1,13.5,30.22,SSE,152,1.3,2.5,56,0.00,,,0.00,0.00,Weather logger V3.0.,2017-02-27 06:57:00,
2017-02-27 02:02:00,27.1,13.1,30.22,ESE,116,0.0,0.0,55,0.00,,,0.00,0.00,Weather logger V3.0.,2017-02-27 07:02:00,
2017-02-27 02:07:00,27.1,13.5,30.23,WSW,248,0.9,2.5,56,0.00,,,0.00,0.00,Weather logger V3.0.,2017-02-27 07:07:00,
2017-02-27 02:12:00,27.3,14.0,30.22,SSE,168,1.1,2.5,57,0.00,,,0.00,0.00,Weather logger V3.0.,2017-02-27 07:12:00,
2017-02-27 02:18:00,27.5,14.2,30.23,SW,229,4.0,4.9,57,0.00,,,0.00,0.00,Weather logger V3.0.,2017-02-27 07:18:00,
2017-02-27 02:23:00,27.7,13.6,30.22,South,188,2.0,2.5,55,0.00,,,0.00,0.00,Weather logger V3.0.,2017-02-27 07:23:00,
2017-02-27 02:28:00,27.9,15.1,30.22,SSE,150,1.1,2.5,58,0.00,,,0.00,0.00,Weather logger V3.0.,2017-02-27 07:28:00,
2017-02-27 02:33:00,28.0,15.1,30.22,South,172,2.5,2.5,58,0.00,,,0.00,0.00,Weather logger V3.0.,2017-02-27 07:33:00,
2017-02-27 02:39:00,28.2,14.9,30.23,SSE,161,2.0,2.5,57,0.00,,,0.00,0.00,Weather logger V3.0.,2017-02-27 07:39:00,
2017-02-27 02:44:00,28.2,13.6,30.23,SE,146,1.8,2.5,54,0.00,,,0.00,0.00,Weather logger V3.0.,2017-02-27 07:44:00,
2017-02-27 02:49:00,28.2,14.2,30.24,SSE,163,3.4,4.9,55,0.00,,,0.00,0.00,Weather logger V3.0.,2017-02-27 07:49:00,
2017-02-27 02:55:00,28.4,14.4,30.24,SSE,158,0.4,2.5,55,0.00,,,0.00,0.00,Weather logger V3.0.,2017-02-27 07:55:00,
2017-02-27 03:00:00,28.2,14.2,30.23,South,173,0.2,2.5,55,0.00,,,0.00,0.00,Weather logger V3.0.,2017-02-27 08:00:00,
2017-02-27 03:05:00,28.0,14.0,30.23,SSE,148,0.0,0.0,55,0.00,,,0.00,0.00,Weather logger V3.0.,2017-02-27 08:05:00,
2017-02-27 03:10:00,27.9,15.1,30.23,SE,141,0.4,2.5,58,0.00,,,0.00,0.00,Weather logger V3.0.,2017-02-27 08:10:00,
2017-02-27 03:16:00,27.7,15.3,30.24,SE,133,0.2,2.5,59,0.00,,,0.00,0.00,Weather logger V3.0.,2017-02-27 08:16:00,
2017-02-27 03:21:00,27.3,15.3,30.24,SE,132,0.0,0.0,60,0.00,,,0.00,0.00,Weather logger V3.0.,2017-02-27 08:21:00,
2017-02-27 03:26:00,27.0,15.3,30.23,South,186,0.0,0.0,61,0.00,,,0.00,0.00,Weather logger V3.0.,2017-02-27 08:26:00,
2017-02-27 03:31:00,26.8,15.4,30.23,SSW,201,1.3,2.5,62,0.00,,,0.00,0.00,Weather logger V3.0.,2017-02-27 08:31:00,